This demonstration page uses our WeatherBlox Daily Observations layout. Learn more.

Left ArrowRight Arrow

40.92945, -100.16068

Hourly Observations for November 24, 2015

Temp ( °F °C ) Dew Point ( °F °C ) Humidity (%) Winds ( mph kmh ) Pressure ( in mb ) Visibility ( mi km ) Precip ( " mm )
12:15 am 00:15 Clear 32 undefined 29 -1.9 87 87 ESE 5 7 30.06 1018 10 16 N/A
12:35 am 00:35 Clear 31 -0.5 28 -2.5 87 87 E 5 7 30.00 1016 10 16 N/A
12:55 am 00:55 Clear 32 undefined 29 -1.7 88 88 ESE 6 9 30.00 1016 10 16 N/A
1:15 am 01:15 Clear 32 undefined 29 -1.9 87 87 E 6 9 30.00 1016 10 16 N/A
1:35 am 01:35 Clear 32 undefined 29 -1.9 87 87 SE 8 13 30.00 1016 10 16 N/A
1:55 am 01:55 Clear 34 1 30 -1 87 87 ESE 3 6 30.00 1016 10 16 N/A
2:15 am 02:15 Clear 33 0.7 29 -1.4 86 86 ESE 6 9 30.00 1016 10 16 N/A
2:35 am 02:35 Clear 30 -0.9 27 -2.6 88 88 E 5 7 30.03 1017 10 16 N/A
2:55 am 02:55 Clear 29 -1.8 26 -3.2 90 90 ESE 6 9 30.00 1016 10 16 N/A
3:15 am 03:15 Clear 29 -1.7 27 -3 91 91 ESE 3 6 30.00 1016 10 16 N/A
3:35 am 03:35 Clear 29 -1.8 27 -3 92 92 E 3 6 30.00 1016 10 16 N/A
3:55 am 03:55 Clear 31 -0.6 29 -1.7 92 92 N N/A 30.00 1016 10 16 N/A
4:15 am 04:15 Clear 29 -1.4 26 -3.3 87 87 N N/A 30.00 1016 10 16 N/A
4:35 am 04:35 Clear 29 -1.5 27 -3 90 90 E 7 11 30.00 1016 10 16 N/A
4:55 am 04:55 Clear 30 -0.9 28 -2.2 91 91 SE 6 9 30.00 1016 10 16 N/A
5:15 am 05:15 Clear 28 -2 26 -3.4 90 90 ESE 3 6 30.00 1016 10 16 N/A
5:35 am 05:35 Clear 33 0.4 30 -0.9 91 91 SE 6 9 29.97 1015 10 16 N/A
5:55 am 05:55 Clear 32 0.2 28 -2 85 85 SE 5 7 29.97 1015 10 16 N/A
6:15 am 06:15 Clear 29 -1.5 26 -3.3 88 88 SE 7 11 30.00 1016 10 16 N/A
6:35 am 06:35 Clear 32 0.2 29 -1.6 88 88 ESE 3 6 29.97 1015 10 16 N/A
6:55 am 06:55 Clear 30 -1 27 -2.8 88 88 ESE 5 7 30.00 1016 10 16 N/A
7:15 am 07:15 Clear 28 -2.3 26 -3.6 91 91 ESE 3 6 30.00 1016 10 16 N/A
7:35 am 07:35 Clear 28 -2.5 25 -3.7 92 92 ESE 3 6 30.00 1016 10 16 N/A
7:55 am 07:55 Sunny 28 -2.5 26 -3.5 93 93 N N/A 30.00 1016 10 16 N/A
8:15 am 08:15 Sunny 28 -2.5 26 -3.6 92 92 ESE 3 6 30.00 1016 10 16 N/A
8:35 am 08:35 Sunny 32 0.1 30 -0.9 93 93 SE 3 6 29.97 1015 10 16 N/A
8:55 am 08:55 Sunny 35 1.7 32 -0.2 87 87 SE 5 7 29.97 1015 10 16 N/A
9:15 am 09:15 Sunny 36 2.2 32 undefined 86 86 SSE 6 9 29.97 1015 10 16 N/A
9:35 am 09:35 Sunny 38 3.2 32 0.2 81 81 SSE 6 9 29.94 1014 10 16 N/A
9:55 am 09:55 Sunny 40 4.2 33 0.7 78 78 SSE 7 11 29.94 1014 10 16 N/A
10:15 am 10:15 Sunny 41 5.2 34 0.9 74 74 S 5 7 29.91 1013 10 16 N/A
10:35 am 10:35 Sunny 44 6.9 34 1 66 66 S 8 13 29.88 1012 10 16 N/A
10:55 am 10:55 Sunny 45 7.4 33 0.7 63 63 SSW 9 15 29.88 1012 10 16 N/A
11:15 am 11:15 Sunny 46 7.8 33 0.5 60 60 S 9 15 29.88 1012 10 16 N/A
11:35 am 11:35 Sunny 47 8.4 33 0.8 59 59 S 9 15 29.85 1011 10 16 N/A
11:55 am 11:55 Sunny 48 9 33 0.8 57 57 SSE 8 13 29.83 1010 10 16 N/A
12:15 pm 12:15 Sunny 49 9.6 34 1.1 56 56 SE 6 9 29.83 1010 10 16 N/A
12:35 pm 12:35 Sunny 50 10.1 34 1.2 54 54 SSE 7 11 29.80 1009 10 16 N/A
12:55 pm 12:55 Sunny 50 10.1 35 1.4 55 55 SSE 9 15 29.80 1009 10 16 N/A
1:15 pm 13:15 Sunny 50 9.9 34 1.2 55 55 SSE 8 13 29.80 1009 10 16 N/A
1:35 pm 13:35 Sunny 49 9.4 35 1.4 58 58 SE 7 11 29.80 1009 10 16 N/A
1:55 pm 13:55 Sunny 51 10.4 35 1.7 55 55 SSE 7 11 29.77 1008 10 16 N/A
2:15 pm 14:15 Sunny 51 10.6 35 1.7 54 54 SE 8 13 29.74 1007 10 16 N/A
2:35 pm 14:35 Sunny 53 11.5 35 1.6 51 51 SSE 12 19 29.74 1007 10 16 N/A
2:55 pm 14:55 Sunny 54 12.1 35 1.6 49 49 S 13 20 29.74 1007 10 16 N/A
3:15 pm 15:15 Sunny 54 12.1 34 1.3 48 48 SSE 12 19 29.74 1007 10 16 N/A
3:35 pm 15:35 Sunny 52 11.3 34 1.3 51 51 S 12 19 29.74 1007 10 16 N/A
3:55 pm 15:55 Sunny 50 10 35 1.5 56 56 S 10 17 29.77 1008 10 16 N/A
4:15 pm 16:15 Sunny 51 10.5 35 1.8 55 55 S 8 13 29.80 1009 10 16 N/A
4:35 pm 16:35 Sunny 50 10 35 1.6 56 56 S 8 13 29.80 1009 10 16 N/A
4:55 pm 16:55 Sunny 48 8.7 35 1.5 61 61 SSE 6 9 29.80 1009 10 16 N/A
5:15 pm 17:15 Sunny 45 7.1 35 1.5 68 68 SE 6 9 29.83 1010 10 16 N/A
5:35 pm 17:35 Clear 43 6.2 34 1.1 70 70 SE 6 9 29.83 1010 10 16 N/A
5:55 pm 17:55 Clear 42 5.7 34 0.9 72 72 SE 6 9 29.83 1010 10 16 N/A
6:15 pm 18:15 Clear 41 5.2 34 1 75 75 SE 5 7 29.83 1010 10 16 N/A
6:35 pm 18:35 Clear 39 4 32 0.1 76 76 SSE 6 9 29.85 1011 10 16 N/A
6:55 pm 18:55 Clear 37 2.9 32 undefined 81 81 SSE 3 6 29.85 1011 10 16 N/A
7:15 pm 19:15 Clear 36 2.4 32 undefined 84 84 SSE 3 6 29.88 1012 10 16 N/A
7:35 pm 19:35 Clear 37 2.7 33 0.3 84 84 SE 3 6 29.85 1011 10 16 N/A
7:55 pm 19:55 Clear 37 2.7 33 0.6 86 86 SSE 3 6 29.85 1011 10 16 N/A
8:15 pm 20:15 Clear 31 -0.3 29 -1.9 89 89 N N/A 29.91 1013 10 16 N/A
8:35 pm 20:35 Clear 31 -0.7 28 -2.1 90 90 N N/A 29.88 1012 10 16 N/A
8:55 pm 20:55 Clear 29 -1.4 28 -2.5 92 92 E 3 6 29.88 1012 10 16 N/A
9:15 pm 21:15 Clear 29 -1.8 27 -2.8 93 93 N N/A 29.91 1013 10 16 N/A
9:35 pm 21:35 Clear 30 -1 28 -2.1 92 92 N N/A 29.88 1012 10 16 N/A
9:55 pm 21:55 Clear 29 -1.9 26 -3.2 91 91 N N/A 29.91 1013 10 16 N/A
10:15 pm 22:15 Clear 29 -1.9 26 -3.2 91 91 N N/A 29.91 1013 10 16 N/A
10:35 pm 22:35 Clear 28 -2.1 26 -3.2 92 92 N N/A 29.88 1012 10 16 N/A
10:55 pm 22:55 Clear 28 -2.4 26 -3.4 93 93 E 3 6 29.88 1012 7 11 N/A
11:15 pm 23:15 Clear 28 -2.3 26 -3.1 94 94 ENE 3 6 29.88 1012 10 16 N/A
11:35 pm 23:35 Clear 28 -2.2 27 -3 94 94 N N/A 29.88 1012 10 16 N/A
11:55 pm 23:55 Clear 28 -2.4 26 -3.3 94 94 N N/A 29.88 1012 7 11 N/A

Powered by AerisWeather